Вернуться в каталог

SL-8 DEB

АктивенLEO
NORAD 43117·DEBRIS·🇷🇺 Russia

Запущен Jun 21, 1988 с Plesetsk Cosmodrome

Loading…

Ближайшие Пролёты (ближайшие 24 часа)

TLE

УстаревающийSource: Space-Track

Эпоха: Sep 9, 2026, 10:40 UTC

1 43117U 88053E   26252.44463786  .00000089  00000-0  37986-4 0  9993
2 43117  74.0517 148.6134 0021299 279.6971  80.1778 14.38226928455452

Отслеживайте SL-8 DEB в реальном времени с AllMySat

Download on the App Store